When you browse on this site, cookies collect data to enhance your experience and personalize the content and advertising you see.
Visit our Privacy Policy to learn more. By continuing to use the site, you agree to this use of cookies and data.
  • în România
  • Lista ţărilor
  • Pe 7 zile
  • Temperatura apei
  • Meteo pe hartă
  • Widget-uri
  • user-avatar
    Intrare

    Meteo pe oră la Diapaga

    Astăzi, 26 Mai, Marţi

    Timp Temperatura Precipitaţii Vânt Presiune Umiditate
    00:00 +34°C° 0 mm 3 m/s 735 mmHg 46%
    01:00 +33°C° 0 mm 3 m/s 735 mmHg 51%
    02:00 +31°C° 0 mm 3 m/s 734 mmHg 56%
    03:00 +30°C° 0 mm 3 m/s 734 mmHg 61%
    04:00 +30°C° 0 mm 3 m/s 734 mmHg 61%
    05:00 +30°C° 0 mm 3 m/s 734 mmHg 61%
    06:00 +29°C° 0 mm 3 m/s 735 mmHg 62%
    07:00 +30°C° 0.1 mm 3 m/s 736 mmHg 58%
    08:00 +31°C° 0.1 mm 2 m/s 736 mmHg 55%
    09:00 +32°C° 0.1 mm 2 m/s 737 mmHg 51%
    10:00 +34°C° 0 mm 2 m/s 737 mmHg 50%
    11:00 +34°C° 0 mm 2 m/s 736 mmHg 49%
    12:00 +34°C° 0 mm 3 m/s 736 mmHg 47%
    13:00 +35°C° 0 mm 2 m/s 735 mmHg 45%
    14:00 +36°C° 0 mm 2 m/s 734 mmHg 42%
    15:00 +37°C° 0 mm 2 m/s 733 mmHg 39%
    16:00 +37°C° 0 mm 2 m/s 733 mmHg 39%
    17:00 +36°C° 0 mm 1 m/s 733 mmHg 39%
    18:00 +35°C° 0 mm 1 m/s 733 mmHg 39%
    19:00 +35°C° 0 mm 1 m/s 734 mmHg 41%
    20:00 +35°C° 0 mm 2 m/s 734 mmHg 44%
    21:00 +34°C° 0 mm 2 m/s 735 mmHg 47%
    22:00 +34°C° 0 mm 2 m/s 735 mmHg 48%
    23:00 +32°C° 0 mm 2 m/s 735 mmHg 49%

    Mâine, 27 Mai, Miercuri

    Timp Temperatura Precipitaţii Vânt Presiune Umiditate
    00:00 +32°C° 0 mm 2 m/s 735 mmHg 50%
    01:00 +33°C° 0.1 mm 3 m/s 735 mmHg 50%
    02:00 +33°C° 0.1 mm 3 m/s 734 mmHg 51%
    03:00 +33°C° 0.1 mm 3 m/s 734 mmHg 52%
    04:00 +31°C° 0.5 mm 3 m/s 734 mmHg 54%
    05:00 +31°C° 0.5 mm 3 m/s 735 mmHg 56%
    06:00 +31°C° 0.5 mm 2 m/s 735 mmHg 59%
    07:00 +31°C° 0.1 mm 3 m/s 735 mmHg 57%
    08:00 +33°C° 0.1 mm 3 m/s 736 mmHg 55%
    09:00 +34°C° 0.1 mm 4 m/s 736 mmHg 52%
    10:00 +35°C° 0 mm 3 m/s 736 mmHg 49%
    11:00 +35°C° 0 mm 3 m/s 736 mmHg 46%
    12:00 +36°C° 0 mm 3 m/s 735 mmHg 42%
    13:00 +37°C° 0 mm 2 m/s 735 mmHg 39%
    14:00 +38°C° 0 mm 2 m/s 734 mmHg 37%
    15:00 +39°C° 0 mm 2 m/s 733 mmHg 34%
    16:00 +38°C° 0.3 mm 2 m/s 733 mmHg 38%
    17:00 +36°C° 0.3 mm 2 m/s 733 mmHg 41%
    18:00 +35°C° 0.3 mm 2 m/s 733 mmHg 45%
    19:00 +34°C° 0.1 mm 1 m/s 734 mmHg 45%
    20:00 +34°C° 0.1 mm 1 m/s 735 mmHg 46%
    21:00 +33°C° 0.1 mm 1 m/s 735 mmHg 47%
    22:00 +33°C° 0.1 mm 1 m/s 735 mmHg 47%
    23:00 +34°C° 0.1 mm 2 m/s 735 mmHg 47%

    Poimâine, 28 Mai, Joi

    Timp Temperatura Precipitaţii Vânt Presiune Umiditate
    00:00 +32°C° 0.1 mm 2 m/s 735 mmHg 48%
    01:00 +32°C° 0.2 mm 2 m/s 735 mmHg 52%
    02:00 +31°C° 0.2 mm 3 m/s 735 mmHg 56%
    03:00 +30°C° 0.2 mm 3 m/s 735 mmHg 60%
    04:00 +30°C° 0 mm 3 m/s 735 mmHg 62%
    05:00 +30°C° 0 mm 3 m/s 735 mmHg 64%
    06:00 +29°C° 0 mm 3 m/s 735 mmHg 65%
    07:00 +31°C° 0 mm 3 m/s 735 mmHg 60%
    08:00 +32°C° 0 mm 2 m/s 735 mmHg 54%
    09:00 +34°C° 0 mm 2 m/s 736 mmHg 48%
    10:00 +36°C° 0 mm 2 m/s 735 mmHg 41%
    11:00 +39°C° 0 mm 2 m/s 735 mmHg 34%
    12:00 +41°C° 0 mm 2 m/s 734 mmHg 27%
    13:00 +41°C° 0 mm 2 m/s 733 mmHg 24%
    14:00 +42°C° 0 mm 2 m/s 733 mmHg 22%
    15:00 +44°C° 0 mm 3 m/s 732 mmHg 19%
    16:00 +43°C° 0 mm 2 m/s 732 mmHg 19%
    17:00 +42°C° 0 mm 2 m/s 732 mmHg 20%
    18:00 +41°C° 0 mm 1 m/s 731 mmHg 20%
    19:00 +40°C° 0 mm 1 m/s 732 mmHg 22%
    20:00 +39°C° 0 mm 2 m/s 733 mmHg 24%
    21:00 +38°C° 0 mm 2 m/s 733 mmHg 26%
    22:00 +38°C° 0 mm 2 m/s 733 mmHg 28%
    23:00 +38°C° 0 mm 2 m/s 733 mmHg 30%

    29 Mai, Vineri

    Timp Temperatura Precipitaţii Vânt Presiune Umiditate
    00:00 +37°C° 0 mm 2 m/s 733 mmHg 31%
    01:00 +36°C° 0 mm 2 m/s 733 mmHg 35%
    02:00 +35°C° 0 mm 2 m/s 733 mmHg 39%
    03:00 +34°C° 0 mm 3 m/s 733 mmHg 42%
    04:00 +34°C° 0 mm 3 m/s 733 mmHg 43%
    05:00 +33°C° 0 mm 3 m/s 733 mmHg 45%
    06:00 +33°C° 0 mm 3 m/s 733 mmHg 46%
    07:00 +35°C° 0 mm 3 m/s 734 mmHg 39%
    08:00 +37°C° 0 mm 2 m/s 734 mmHg 33%
    09:00 +39°C° 0 mm 2 m/s 734 mmHg 26%
    10:00 +41°C° 0 mm 2 m/s 734 mmHg 23%
    11:00 +43°C° 0 mm 2 m/s 733 mmHg 19%
    12:00 +46°C° 0 mm 2 m/s 733 mmHg 15%
    13:00 +46°C° 0 mm 3 m/s 732 mmHg 14%
    14:00 +46°C° 0 mm 3 m/s 731 mmHg 13%
    15:00 +47°C° 0 mm 3 m/s 730 mmHg 13%
    16:00 +46°C° 0 mm 2 m/s 730 mmHg 13%
    17:00 +45°C° 0 mm 2 m/s 730 mmHg 14%
    18:00 +43°C° 0 mm 1 m/s 730 mmHg 15%
    19:00 +42°C° 0 mm 1 m/s 731 mmHg 17%
    20:00 +41°C° 0 mm 2 m/s 731 mmHg 19%
    21:00 +40°C° 0 mm 2 m/s 732 mmHg 21%
    22:00 +39°C° 0 mm 3 m/s 732 mmHg 25%
    23:00 +38°C° 0 mm 4 m/s 732 mmHg 30%

    30 Mai, Sâmbătă

    Timp Temperatura Precipitaţii Vânt Presiune Umiditate
    00:00 +37°C° 0 mm 5 m/s 732 mmHg 34%
    01:00 +35°C° 0 mm 6 m/s 732 mmHg 43%
    02:00 +34°C° 0 mm 6 m/s 732 mmHg 52%
    03:00 +33°C° 0 mm 6 m/s 733 mmHg 60%
    04:00 +32°C° 0 mm 5 m/s 733 mmHg 61%
    05:00 +32°C° 0 mm 5 m/s 734 mmHg 62%
    06:00 +32°C° 0 mm 5 m/s 734 mmHg 62%
    07:00 +33°C° 0 mm 5 m/s 734 mmHg 58%
    08:00 +34°C° 0 mm 5 m/s 735 mmHg 53%
    09:00 +35°C° 0 mm 5 m/s 735 mmHg 49%
    10:00 +37°C° 0 mm 5 m/s 735 mmHg 44%
    11:00 +40°C° 0 mm 5 m/s 734 mmHg 39%
    12:00 +41°C° 0 mm 5 m/s 734 mmHg 34%
    13:00 +42°C° 0 mm 4 m/s 733 mmHg 32%
    14:00 +42°C° 0 mm 4 m/s 732 mmHg 31%
    15:00 +43°C° 0 mm 4 m/s 732 mmHg 29%
    16:00 +42°C° 0 mm 3 m/s 732 mmHg 31%
    17:00 +40°C° 0 mm 3 m/s 732 mmHg 32%
    18:00 +40°C° 0 mm 3 m/s 732 mmHg 33%
    19:00 +39°C° 0 mm 3 m/s 732 mmHg 35%
    20:00 +38°C° 0 mm 3 m/s 733 mmHg 38%
    21:00 +37°C° 0 mm 3 m/s 733 mmHg 41%
    22:00 +36°C° 0 mm 3 m/s 733 mmHg 42%
    23:00 +36°C° 0 mm 3 m/s 734 mmHg 43%

    31 Mai, Duminică

    Timp Temperatura Precipitaţii Vânt Presiune Umiditate
    00:00 +35°C° 0 mm 4 m/s 734 mmHg 44%
    01:00 +34°C° 0 mm 4 m/s 734 mmHg 49%
    02:00 +34°C° 0 mm 4 m/s 734 mmHg 53%
    03:00 +33°C° 0 mm 5 m/s 733 mmHg 58%
    04:00 +32°C° 0 mm 5 m/s 734 mmHg 60%
    05:00 +32°C° 0 mm 5 m/s 734 mmHg 61%
    06:00 +30°C° 0 mm 5 m/s 734 mmHg 63%
    07:00 +33°C° 0 mm 5 m/s 735 mmHg 59%
    08:00 +34°C° 0 mm 5 m/s 735 mmHg 55%
    09:00 +35°C° 0 mm 5 m/s 736 mmHg 50%
    10:00 +37°C° 0 mm 5 m/s 735 mmHg 46%
    11:00 +40°C° 0 mm 4 m/s 735 mmHg 41%
    12:00 +41°C° 0 mm 4 m/s 735 mmHg 37%
    13:00 +42°C° 0 mm 3 m/s 734 mmHg 34%
    14:00 +43°C° 0 mm 3 m/s 733 mmHg 31%
    15:00 +42°C° 0 mm 2 m/s 733 mmHg 28%
    16:00 +38°C° 2 mm 4 m/s 733 mmHg 40%
    17:00 +34°C° 2 mm 6 m/s 732 mmHg 52%
    18:00 +29°C° 2 mm 8 m/s 732 mmHg 64%
    19:00 +32°C° 0.7 mm 6 m/s 733 mmHg 56%
    20:00 +33°C° 0.7 mm 4 m/s 733 mmHg 47%
    21:00 +35°C° 0.7 mm 2 m/s 734 mmHg 39%
    22:00 +34°C° 0 mm 2 m/s 734 mmHg 43%
    23:00 +32°C° 0 mm 2 m/s 734 mmHg 47%
    Arată mai mult